,,,PA_Meas_PMT16A,,PR_Meas_QMR101_102,,RH_Meas_QMH101,,SR_Meas_QMS101,,TA_Meas_QMH101,,GenWind,,GenWind,
date,time,status,PA,status,PR,status,RH,status,SR,status,TA,status,DirAvg,status,SpdAvg,
2010-08-23, 00:00:05,VALID,1003.51,VALID,0,INVALID,118.698,VALID,0,VALID,23.9159,VALID,353,VALID,0,
2010-08-23, 00:01:05,VALID,1003.46,VALID,0,INVALID,118.629,VALID,0,VALID,23.9159,VALID,353,VALID,0,
2010-08-23, 00:02:05,VALID,1003.43,VALID,0,INVALID,118.637,VALID,0,VALID,23.9159,VALID,353,VALID,0,
2010-08-23, 00:03:05,VALID,1003.4,VALID,0,INVALID,118.637,VALID,0,VALID,23.9177,VALID,306,VALID,0.248437,
2010-08-23, 00:04:05,VALID,1003.4,VALID,0,INVALID,118.637,VALID,0,VALID,23.8982,VALID,306,VALID,0.445703,
2010-08-23, 00:05:04,VALID,1003.37,VALID,0,INVALID,118.69,VALID,0,VALID,23.838,VALID,313,VALID,0.222656,
2010-08-23, 00:06:04,VALID,1003.33,VALID,0,INVALID,118.675,VALID,0,VALID,23.7991,VALID,310,VALID,0.700391,
2010-08-23, 00:07:04,VALID,1003.3,VALID,0,INVALID,118.69,VALID,0,VALID,23.7601,VALID,308,VALID,0.282031,
2010-08-23, 00:08:04,VALID,1003.28,VALID,0,INVALID,118.629,VALID,0,VALID,23.7601,VALID,356,VALID,0.495703,
2010-08-23, 00:09:04,VALID,1003.25,VALID,0,INVALID,118.667,VALID,0,VALID,23.7,VALID,300,VALID,0.642187,
2010-08-23, 00:10:04,VALID,1003.21,VALID,0,INVALID,118.644,VALID,0.100563,VALID,23.7017,VALID,301,VALID,0.367969,
2010-08-23, 00:11:04,VALID,1003.19,VALID,0,INVALID,118.538,VALID,0,VALID,23.6823,VALID,302,VALID,0.327734,
2010-08-23, 00:12:04,VALID,1003.15,VALID,0,INVALID,118.461,VALID,0,VALID,23.661,VALID,311,VALID,0.559375,
2010-08-23, 00:13:04,VALID,1003.16,VALID,0,INVALID,118.347,VALID,0.100563,VALID,23.6628,VALID,345,VALID,0.594141,
2010-08-23, 00:14:04,VALID,1003.13,VALID,0,INVALID,118.278,VALID,0,VALID,23.6823,VALID,358,VALID,0.00117188,
2010-08-23, 00:15:04,VALID,1003.1,VALID,0,INVALID,118.156,VALID,0,VALID,23.661,VALID,266,VALID,0.228516,
2010-08-23, 00:16:04,VALID,1003.12,VALID,0,INVALID,118.08,VALID,0.100563,VALID,23.6823,VALID,266,VALID,0,
2010-08-23, 00:17:04,VALID,1003.05,VALID,0,INVALID,117.958,VALID,0.100563,VALID,23.7017,VALID,266,VALID,0.163281,
2010-08-23, 00:18:04,VALID,1003.04,VALID,0,INVALID,117.813,VALID,0,VALID,23.7619,VALID,266,VALID,0.0910156,
2010-08-23, 00:19:04,VALID,1003,VALID,0,INVALID,117.744,VALID,0.100563,VALID,23.7619,VALID,338,VALID,0.674219,
2010-08-23, 00:20:04,VALID,1002.96,VALID,0,INVALID,117.79,VALID,0,VALID,23.7212,VALID,351,VALID,0.500391,
2010-08-23, 00:21:04,VALID,1002.98,VALID,0,INVALID,117.737,VALID,0,VALID,23.7017,VALID,351,VALID,0.444531,
2010-08-23, 00:22:04,VALID,1002.96,VALID,0,INVALID,117.752,VALID,0.100563,VALID,23.6823,VALID,351,VALID,0.457031,
2010-08-23, 00:23:04,VALID,1002.91,VALID,0,INVALID,117.775,VALID,0,VALID,23.6628,VALID,351,VALID,0.411328,
2010-08-23, 00:24:04,VALID,1002.86,VALID,0,INVALID,117.691,VALID,0,VALID,23.6416,VALID,351,VALID,0.0121094,
2010-08-23, 00:25:04,VALID,1002.81,VALID,0,INVALID,117.584,VALID,0,VALID,23.6823,VALID,351,VALID,0.4875,
2010-08-23, 00:26:04,VALID,1002.8,VALID,0,INVALID,117.469,VALID,0,VALID,23.7017,VALID,351,VALID,0.518359,
2010-08-23, 00:27:04,VALID,1002.75,VALID,0,INVALID,117.416,VALID,0,VALID,23.7017,VALID,351,VALID,0.226563,
2010-08-23, 00:28:04,VALID,1002.74,VALID,0,INVALID,117.332,VALID,0,VALID,23.7017,VALID,351,VALID,0.171094,
2010-08-23, 00:29:04,VALID,1002.72,VALID,0,INVALID,117.248,VALID,0,VALID,23.7212,VALID,351,VALID,0.009375,
2010-08-23, 00:30:04,VALID,1002.72,VALID,0,INVALID,117.119,VALID,0,VALID,23.7407,VALID,351,VALID,0,
2010-08-23, 00:31:04,VALID,1002.68,VALID,0,INVALID,117.042,VALID,0,VALID,23.7601,VALID,351,VALID,0,
2010-08-23, 00:32:04,VALID,1002.67,VALID,0,INVALID,116.989,VALID,0,VALID,23.7601,VALID,351,VALID,0,
2010-08-23, 00:33:04,VALID,1002.61,VALID,0,INVALID,116.821,VALID,0,VALID,23.8185,VALID,351,VALID,0.316016,
2010-08-23, 00:34:04,VALID,1002.56,VALID,0,INVALID,116.714,VALID,0,VALID,23.8593,VALID,351,VALID,0.521094,
2010-08-23, 00:35:04,VALID,1002.53,VALID,0,INVALID,116.638,VALID,0,VALID,23.838,VALID,351,VALID,0.56875,
2010-08-23, 00:36:04,VALID,1002.49,VALID,0,INVALID,116.699,VALID,0,VALID,23.838,VALID,351,VALID,0.622656,
2010-08-23, 00:37:04,VALID,1002.45,VALID,0,INVALID,116.646,VALID,0,VALID,23.838,VALID,343,VALID,0.353516,
2010-08-23, 00:38:04,VALID,1002.41,VALID,0,INVALID,116.554,VALID,0,VALID,23.838,VALID,343,VALID,0.410156,
2010-08-23, 00:39:04,VALID,1002.36,VALID,0,INVALID,116.44,VALID,0,VALID,23.8787,VALID,343,VALID,0,
2010-08-23, 00:40:04,VALID,1002.36,VALID,0,INVALID,116.379,VALID,0,VALID,23.8769,VALID,342,VALID,0,
2010-08-23, 00:41:04,VALID,1002.35,VALID,0,INVALID,116.386,VALID,0,VALID,23.8964,VALID,342,VALID,0.119922,
2010-08-23, 00:42:04,VALID,1002.34,VALID,0,INVALID,116.279,VALID,0,VALID,23.9159,VALID,324,VALID,0.2125,
2010-08-23, 00:43:04,VALID,1002.29,VALID,0,INVALID,116.173,VALID,0,VALID,23.9548,VALID,324,VALID,0,
2010-08-23, 00:44:04,VALID,1002.34,VALID,0,INVALID,116.081,VALID,0,VALID,23.9742,VALID,324,VALID,0.423047,
2010-08-23, 00:45:04,VALID,1002.42,VALID,0,INVALID,116.028,VALID,0,VALID,24.0132,VALID,19,VALID,0.730859,
2010-08-23, 00:46:04,VALID,1002.44,VALID,0,INVALID,116.02,VALID,0,VALID,23.9937,VALID,112,VALID,0.816797,
2010-08-23, 00:47:04,VALID,1002.4,VALID,0,INVALID,116.043,VALID,0,VALID,23.9724,VALID,133,VALID,0.638672,
2010-08-23, 00:48:04,VALID,1002.37,VALID,0,INVALID,116.043,VALID,0,VALID,24.015,VALID,133,VALID,0.116406,
2010-08-23, 00:49:04,VALID,1002.32,VALID,0,INVALID,115.989,VALID,0,VALID,24.0132,VALID,133,VALID,0,
2010-08-23, 00:50:04,VALID,1002.32,VALID,0,INVALID,115.936,VALID,0,VALID,24.0345,VALID,133,VALID,0,
2010-08-23, 00:51:04,VALID,1002.25,VALID,0,INVALID,115.883,VALID,0,VALID,24.0326,VALID,133,VALID,0,
2010-08-23, 00:52:04,VALID,1002.23,VALID,0,INVALID,115.784,VALID,0,VALID,24.0503,VALID,133,VALID,0,
2010-08-23, 00:53:04,VALID,1002.27,VALID,0,INVALID,115.761,VALID,0,VALID,24.1105,VALID,133,VALID,0,
2010-08-23, 00:54:04,VALID,1002.29,VALID,0,INVALID,115.661,VALID,0.100563,VALID,24.13,VALID,132,VALID,0,
2010-08-23, 00:55:04,VALID,1002.23,VALID,0,INVALID,115.7,VALID,0.100563,VALID,24.13,VALID,350,VALID,0.328516,
2010-08-23, 00:56:04,VALID,1002.2,VALID,0,INVALID,115.7,VALID,0,VALID,24.1318,VALID,354,VALID,0.665234,
2010-08-23, 00:57:04,VALID,1002.17,VALID,0,INVALID,115.814,VALID,0,VALID,24.1105,VALID,354,VALID,0.442969,
2010-08-23, 00:58:04,VALID,1002.15,VALID,0,INVALID,115.822,VALID,0,VALID,24.1105,VALID,2,VALID,1.14766,
2010-08-23, 00:59:04,VALID,1002.14,VALID,0,INVALID,115.669,VALID,0,VALID,24.13,VALID,68,VALID,0.235938,
2010-08-23, 01:00:04,VALID,1002.11,VALID,0,INVALID,115.829,VALID,0,VALID,24.13,VALID,358,VALID,0.492188,
2010-08-23, 01:01:04,VALID,1002.09,VALID,0,INVALID,115.997,VALID,0,VALID,24.1105,VALID,356,VALID,0.613281,
2010-08-23, 01:02:04,VALID,1002.14,VALID,0,INVALID,116.173,VALID,0,VALID,24.0716,VALID,350,VALID,0.719922,
2010-08-23, 01:03:04,VALID,1002.17,VALID,0,INVALID,116.287,VALID,0,VALID,24.0521,VALID,350,VALID,0.392578,
2010-08-23, 01:04:04,VALID,1002.16,VALID,0,INVALID,116.325,VALID,0.100563,VALID,24.0326,VALID,344,VALID,0.265234,
2010-08-23, 01:05:04,VALID,1002.15,VALID,0,INVALID,116.348,VALID,0,VALID,24.0132,VALID,344,VALID,0.371484,
2010-08-23, 01:06:04,VALID,1002.09,VALID,0,INVALID,116.447,VALID,0,VALID,23.9937,VALID,351,VALID,0.632422,
2010-08-23, 01:07:04,VALID,1002.09,VALID,0,INVALID,116.531,VALID,0,VALID,23.9937,VALID,357,VALID,0.519141,
2010-08-23, 01:08:04,VALID,1002.12,VALID,0,INVALID,116.684,VALID,0,VALID,23.9761,VALID,357,VALID,0.580078,
2010-08-23, 01:09:04,VALID,1002.12,VALID,0,INVALID,116.76,VALID,0.100563,VALID,23.9566,VALID,357,VALID,0.699219,
2010-08-23, 01:10:04,VALID,1002.1,VALID,0,INVALID,116.737,VALID,0,VALID,23.9353,VALID,357,VALID,0.503516,
2010-08-23, 01:11:04,VALID,1002.08,VALID,0,INVALID,116.859,VALID,0,VALID,23.8964,VALID,349,VALID,0.851563,
2010-08-23, 01:12:04,VALID,1002.08,VALID,0,INVALID,116.981,VALID,0,VALID,23.8787,VALID,353,VALID,1.08906,
2010-08-23, 01:13:04,VALID,1002.08,VALID,0,INVALID,117.05,VALID,0,VALID,23.8575,VALID,354,VALID,0.748047,
2010-08-23, 01:14:04,VALID,1002.09,VALID,0,INVALID,117.019,VALID,0,VALID,23.8575,VALID,353,VALID,0.703125,
2010-08-23, 01:15:04,VALID,1002.06,VALID,0,INVALID,117.058,VALID,0,VALID,23.8787,VALID,336,VALID,0.533594,
2010-08-23, 01:16:04,VALID,1002.01,VALID,0,INVALID,117.088,VALID,0,VALID,23.8769,VALID,352,VALID,0.852734,
2010-08-23, 01:17:04,VALID,1001.98,VALID,0,INVALID,117.096,VALID,0,VALID,23.8575,VALID,347,VALID,0.947266,
2010-08-23, 01:18:04,VALID,1001.99,VALID,0,INVALID,117.111,VALID,0,VALID,23.8964,VALID,358,VALID,0.860547,
2010-08-23, 01:19:04,VALID,1002.01,VALID,0,INVALID,117.088,VALID,0,VALID,23.9177,VALID,359,VALID,0.655078,
2010-08-23, 01:20:04,VALID,1002.1,VALID,0,INVALID,117.088,VALID,0,VALID,23.8964,VALID,22,VALID,0.932031,
2010-08-23, 01:21:04,VALID,1002.16,VALID,0,INVALID,117.08,VALID,0,VALID,23.8964,VALID,21,VALID,0.637891,
2010-08-23, 01:22:04,VALID,1002.19,VALID,0,INVALID,117.08,VALID,0,VALID,23.9159,VALID,38,VALID,0.436719,
2010-08-23, 01:23:04,VALID,1002.18,VALID,0,INVALID,117.073,VALID,0,VALID,23.9159,VALID,104,VALID,0.288672,
2010-08-23, 01:24:04,VALID,1002.15,VALID,0,INVALID,116.89,VALID,0,VALID,23.9353,VALID,98,VALID,0.259766,
2010-08-23, 01:25:04,VALID,1002.22,VALID,0,INVALID,116.768,VALID,0,VALID,23.9724,VALID,96,VALID,0.326953,
2010-08-23, 01:26:04,VALID,1002.18,VALID,0,INVALID,116.745,VALID,0,VALID,24.0132,VALID,95,VALID,0,
2010-08-23, 01:27:04,VALID,1002.16,VALID,0,INVALID,116.714,VALID,0,VALID,23.9919,VALID,95,VALID,0.0226563,
2010-08-23, 01:28:04,VALID,1002.18,VALID,0,INVALID,116.539,VALID,0,VALID,24.0716,VALID,100,VALID,0.496875,
2010-08-23, 01:29:04,VALID,1002.13,VALID,0,INVALID,116.394,VALID,0,VALID,24.13,VALID,100,VALID,0.0296875,
2010-08-23, 01:30:04,VALID,1002.18,VALID,0,INVALID,116.287,VALID,0,VALID,24.1902,VALID,101,VALID,0.113672,
2010-08-23, 01:31:04,VALID,1002.19,VALID,0,INVALID,116.272,VALID,0.100563,VALID,24.2097,VALID,101,VALID,0,
2010-08-23, 01:32:04,VALID,1002.14,VALID,0,INVALID,116.325,VALID,0,VALID,24.1884,VALID,152,VALID,0.452734,
2010-08-23, 01:33:04,VALID,1002.17,VALID,0,INVALID,116.356,VALID,0,VALID,24.1689,VALID,153,VALID,0.0753906,
2010-08-23, 01:34:04,VALID,1002.19,VALID,0,INVALID,116.44,VALID,0,VALID,24.1689,VALID,153,VALID,0,
2010-08-23, 01:35:04,VALID,1002.1,VALID,0,INVALID,116.508,VALID,0,VALID,24.13,VALID,153,VALID,0.0105469,
2010-08-23, 01:36:04,VALID,1002.11,VALID,0,INVALID,116.6,VALID,0,VALID,24.1105,VALID,153,VALID,0.0046875,
2010-08-23, 01:37:04,VALID,1002.11,VALID,0,INVALID,116.829,VALID,0,VALID,24.0521,VALID,153,VALID,0,
2010-08-23, 01:38:04,VALID,1002.11,VALID,0,INVALID,116.874,VALID,0,VALID,24.0326,VALID,153,VALID,0.3,
2010-08-23, 01:39:04,VALID,1002.11,VALID,0,INVALID,116.951,VALID,0,VALID,23.9742,VALID,153,VALID,0,
2010-08-23, 01:40:04,VALID,1002.09,VALID,0,INVALID,116.951,VALID,0,VALID,23.9955,VALID,153,VALID,0,
2010-08-23, 01:41:04,VALID,1002.09,VALID,0,INVALID,116.913,VALID,0,VALID,23.9742,VALID,153,VALID,0.232031,
2010-08-23, 01:42:04,VALID,1002.09,VALID,0,INVALID,116.897,VALID,0,VALID,23.9955,VALID,153,VALID,0.314844,
2010-08-23, 01:43:04,VALID,1002.06,VALID,0,INVALID,116.874,VALID,0,VALID,23.9742,VALID,153,VALID,0,
2010-08-23, 01:44:04,VALID,1002.07,VALID,0,INVALID,116.859,VALID,0,VALID,23.9742,VALID,153,VALID,0,
2010-08-23, 01:45:04,VALID,1002.06,VALID,0,INVALID,116.791,VALID,0,VALID,23.9742,VALID,73,VALID,0.174609,
2010-08-23, 01:46:04,VALID,1002.04,VALID,0,INVALID,116.752,VALID,0,VALID,23.9937,VALID,24,VALID,0.554688,
2010-08-23, 01:47:04,VALID,1002.05,VALID,0,INVALID,116.661,VALID,0,VALID,23.9937,VALID,24,VALID,0.532812,
2010-08-23, 01:48:04,VALID,1002.04,VALID,0,INVALID,116.592,VALID,0,VALID,23.9937,VALID,24,VALID,0.372656,
2010-08-23, 01:49:04,VALID,1002.03,VALID,0,INVALID,116.615,VALID,0,VALID,23.9937,VALID,24,VALID,0.435156,
2010-08-23, 01:50:04,VALID,1002.02,VALID,0,INVALID,116.615,VALID,0,VALID,23.9742,VALID,24,VALID,0.248437,
2010-08-23, 01:51:04,VALID,1002.01,VALID,0,INVALID,116.585,VALID,0,VALID,23.9548,VALID,24,VALID,0.00195313,
2010-08-23, 01:52:04,VALID,1002,VALID,0,INVALID,116.546,VALID,0,VALID,23.9548,VALID,24,VALID,0.0289063,
2010-08-23, 01:53:04,VALID,1001.99,VALID,0,INVALID,116.318,VALID,0,VALID,24.0132,VALID,140,VALID,0.659766,
2010-08-23, 01:54:04,VALID,1001.94,VALID,0,INVALID,116.15,VALID,0,VALID,24.0716,VALID,122,VALID,0.24375,
2010-08-23, 01:55:04,VALID,1001.91,VALID,0,INVALID,116.073,VALID,0,VALID,24.091,VALID,123,VALID,0.552734,
2010-08-23, 01:56:04,VALID,1001.91,VALID,0,INVALID,115.89,VALID,0,VALID,24.1494,VALID,123,VALID,0.423047,
2010-08-23, 01:57:04,VALID,1001.87,VALID,0,INVALID,115.768,VALID,0,VALID,24.2078,VALID,127,VALID,0.620703,
2010-08-23, 01:58:04,VALID,1001.86,VALID,0,INVALID,115.684,VALID,0,VALID,24.2662,VALID,140,VALID,1.10391,
2010-08-23, 01:59:04,VALID,1001.81,VALID,0,INVALID,115.677,VALID,0,VALID,24.3459,VALID,137,VALID,0.271875,
2010-08-23, 02:00:04,VALID,1001.8,VALID,0,INVALID,115.784,VALID,0,VALID,24.2839,VALID,164,VALID,0.605859,
2010-08-23, 02:01:04,VALID,1001.85,VALID,0,INVALID,115.974,VALID,0,VALID,24.2857,VALID,172,VALID,0.183203,
2010-08-23, 02:02:04,VALID,1001.82,VALID,0,INVALID,116.035,VALID,0,VALID,24.2875,VALID,158,VALID,0.102344,
2010-08-23, 02:03:04,VALID,1001.86,VALID,0,INVALID,116.134,VALID,0,VALID,24.2681,VALID,133,VALID,0.247266,
2010-08-23, 02:04:04,VALID,1001.95,VALID,0,INVALID,116.241,VALID,0,VALID,24.2468,VALID,185,VALID,2.12148,
2010-08-23, 02:05:04,VALID,1001.89,VALID,0,INVALID,116.501,VALID,0,VALID,24.1884,VALID,200,VALID,1.26406,
2010-08-23, 02:06:04,VALID,1001.94,VALID,0,INVALID,116.6,VALID,0,VALID,24.1884,VALID,176,VALID,0.720312,
2010-08-23, 02:07:04,VALID,1001.95,VALID,0,INVALID,116.569,VALID,0,VALID,24.1689,VALID,121,VALID,0.605469,
2010-08-23, 02:08:04,VALID,1001.89,VALID,0,INVALID,116.554,VALID,0,VALID,24.1884,VALID,129,VALID,0.595703,
2010-08-23, 02:09:04,VALID,1001.92,VALID,0,INVALID,116.554,VALID,0,VALID,24.2097,VALID,206,VALID,0.602734,
2010-08-23, 02:10:04,VALID,1001.89,VALID,0,INVALID,116.516,VALID,0,VALID,24.2078,VALID,222,VALID,0.147266,
2010-08-23, 02:11:04,VALID,1001.91,VALID,0,INVALID,116.524,VALID,0,VALID,24.2097,VALID,222,VALID,0,
2010-08-23, 02:12:04,VALID,1001.92,VALID,0,INVALID,116.569,VALID,0,VALID,24.2078,VALID,222,VALID,0.250781,
2010-08-23, 02:13:04,VALID,1001.89,VALID,0,INVALID,116.546,VALID,0,VALID,24.2078,VALID,292,VALID,0.561328,
2010-08-23, 02:14:04,VALID,1001.93,VALID,0,INVALID,116.562,VALID,0,VALID,24.2078,VALID,333,VALID,0.547266,
2010-08-23, 02:15:04,VALID,1001.91,VALID,0,INVALID,116.531,VALID,0,VALID,24.2273,VALID,33,VALID,0.667578,
2010-08-23, 02:16:04,VALID,1001.9,VALID,0,INVALID,116.432,VALID,0,VALID,24.2468,VALID,25,VALID,0.587891,
2010-08-23, 02:17:04,VALID,1001.88,VALID,0,INVALID,116.478,VALID,0,VALID,24.2273,VALID,360,VALID,0.416797,
2010-08-23, 02:18:04,VALID,1001.88,VALID,0,INVALID,116.508,VALID,0,VALID,24.2273,VALID,360,VALID,0.266016,
2010-08-23, 02:19:04,VALID,1001.86,VALID,0,INVALID,116.546,VALID,0,VALID,24.2486,VALID,360,VALID,0.305469,
2010-08-23, 02:20:04,VALID,1001.85,VALID,0,INVALID,116.585,VALID,0,VALID,24.2097,VALID,326,VALID,0.419922,
2010-08-23, 02:21:04,VALID,1001.86,VALID,0,INVALID,116.615,VALID,0,VALID,24.1689,VALID,326,VALID,0.00664063,
2010-08-23, 02:22:04,VALID,1001.88,VALID,0,INVALID,116.646,VALID,0,VALID,24.1689,VALID,326,VALID,0,
2010-08-23, 02:23:04,VALID,1001.91,VALID,0,INVALID,116.76,VALID,0,VALID,24.1494,VALID,326,VALID,0,
2010-08-23, 02:24:04,VALID,1001.88,VALID,0,INVALID,116.76,VALID,0,VALID,24.1318,VALID,326,VALID,0,
2010-08-23, 02:25:04,VALID,1001.86,VALID,0,INVALID,116.745,VALID,0,VALID,24.1318,VALID,326,VALID,0,
2010-08-23, 02:26:04,VALID,1001.87,VALID,0,INVALID,116.722,VALID,0,VALID,24.1318,VALID,326,VALID,0,
2010-08-23, 02:27:04,VALID,1001.9,VALID,0,INVALID,116.768,VALID,0,VALID,24.1123,VALID,326,VALID,0,
2010-08-23, 02:28:04,VALID,1001.94,VALID,0,INVALID,116.791,VALID,0,VALID,24.0716,VALID,326,VALID,0,
2010-08-23, 02:29:04,VALID,1001.95,VALID,0,INVALID,116.806,VALID,0,VALID,24.0521,VALID,326,VALID,0,
2010-08-23, 02:30:04,VALID,1002,VALID,0,INVALID,116.813,VALID,0,VALID,24.0539,VALID,340,VALID,0.758984,
2010-08-23, 02:31:04,VALID,1002.03,VALID,0,INVALID,116.89,VALID,0,VALID,24.015,VALID,349,VALID,0.636328,
2010-08-23, 02:32:04,VALID,1002.01,VALID,0,INVALID,116.966,VALID,0,VALID,23.9761,VALID,346,VALID,0.629687,
2010-08-23, 02:33:04,VALID,1002,VALID,0,INVALID,116.897,VALID,0,VALID,23.9566,VALID,343,VALID,0.7125,
2010-08-23, 02:34:04,VALID,1001.99,VALID,0,INVALID,116.859,VALID,0,VALID,23.9177,VALID,350,VALID,0.588281,
2010-08-23, 02:35:04,VALID,1001.99,VALID,0,INVALID,116.791,VALID,0,VALID,23.9177,VALID,354,VALID,0.353516,
2010-08-23, 02:36:04,VALID,1002,VALID,0,INVALID,116.714,VALID,0,VALID,23.9177,VALID,354,VALID,0.570703,
2010-08-23, 02:37:04,VALID,1002.01,VALID,0,INVALID,116.646,VALID,0,VALID,23.9177,VALID,354,VALID,0.539453,
2010-08-23, 02:38:04,VALID,1002.02,VALID,0,INVALID,116.592,VALID,0,VALID,23.9177,VALID,354,VALID,0.681641,
2010-08-23, 02:39:04,VALID,1001.99,VALID,0,INVALID,116.501,VALID,0,VALID,23.9177,VALID,354,VALID,0.390234,
2010-08-23, 02:40:04,VALID,1001.98,VALID,0,INVALID,116.401,VALID,0,VALID,23.8964,VALID,353,VALID,0.759375,
2010-08-23, 02:41:04,VALID,1002,VALID,0,INVALID,116.325,VALID,0,VALID,23.8964,VALID,360,VALID,1.16328,
2010-08-23, 02:42:04,VALID,1002.03,VALID,0,INVALID,116.302,VALID,0,VALID,23.8964,VALID,356,VALID,1.19961,
2010-08-23, 02:43:04,VALID,1002,VALID,0,INVALID,116.203,VALID,0,VALID,23.9371,VALID,354,VALID,0.703906,
2010-08-23, 02:44:04,VALID,1002.02,VALID,0,INVALID,116.127,VALID,0,VALID,23.9566,VALID,3,VALID,1.32109,
2010-08-23, 02:45:04,VALID,1002.07,VALID,0,INVALID,115.989,VALID,0,VALID,23.9548,VALID,11,VALID,1.51836,
2010-08-23, 02:46:04,VALID,1002.06,VALID,0,INVALID,115.288,VALID,0,VALID,24.091,VALID,10,VALID,1.3168,
2010-08-23, 02:47:04,VALID,1002.03,VALID,0,INVALID,114.799,VALID,0,VALID,24.2468,VALID,7,VALID,0.711719,
2010-08-23, 02:48:04,VALID,1002.02,VALID,0,INVALID,114.479,VALID,0,VALID,24.4025,VALID,14,VALID,0.508594,
2010-08-23, 02:49:04,VALID,1002.01,VALID,0,INVALID,114.296,VALID,0,VALID,24.4822,VALID,5,VALID,0.861328,
2010-08-23, 02:50:04,VALID,1002.04,VALID,0,INVALID,114.151,VALID,0,VALID,24.5582,VALID,55,VALID,0.879687,
2010-08-23, 02:51:04,VALID,1002.07,VALID,0,INVALID,114.014,VALID,0,VALID,24.6361,VALID,64,VALID,0.844531,
2010-08-23, 02:52:04,VALID,1002.09,VALID,0,INVALID,113.998,VALID,0,VALID,24.7159,VALID,36,VALID,0.495313,
2010-08-23, 02:53:04,VALID,1002.13,VALID,0,INVALID,114.105,VALID,0,VALID,24.7335,VALID,6,VALID,0.654297,
2010-08-23, 02:54:04,VALID,1002.13,VALID,0,INVALID,114.296,VALID,0,VALID,24.714,VALID,6,VALID,0.667188,
2010-08-23, 02:55:04,VALID,1002.17,VALID,0,INVALID,114.418,VALID,0,VALID,24.714,VALID,25,VALID,0.667188,
2010-08-23, 02:56:04,VALID,1002.11,VALID,0,INVALID,114.586,VALID,0,VALID,24.714,VALID,347,VALID,0.645312,
2010-08-23, 02:57:04,VALID,1002.18,VALID,0,INVALID,114.807,VALID,0,VALID,24.714,VALID,16,VALID,1.40859,
2010-08-23, 02:58:04,VALID,1002.16,VALID,0,INVALID,115.082,VALID,0,VALID,24.7743,VALID,30,VALID,1.08359,
2010-08-23, 02:59:04,VALID,1002.13,VALID,0,INVALID,115.417,VALID,0,VALID,24.7529,VALID,359,VALID,0.967969,
2010-08-23, 03:00:04,VALID,1002.09,VALID,0,INVALID,115.883,VALID,0,VALID,24.7937,VALID,14,VALID,0.9,
2010-08-23, 03:01:04,VALID,1002.08,VALID,0,INVALID,116.249,VALID,0,VALID,24.8113,VALID,344,VALID,0.351563,
2010-08-23, 03:02:04,VALID,1002.03,VALID,0,INVALID,116.63,VALID,0,VALID,24.8113,VALID,345,VALID,1.00664,
2010-08-23, 03:03:04,VALID,1002.04,VALID,0,INVALID,117.012,VALID,0,VALID,24.8503,VALID,163,VALID,0.261719,
2010-08-23, 03:04:04,VALID,1002.08,VALID,0,INVALID,117.37,VALID,0,VALID,24.8697,VALID,133,VALID,0.295312,
2010-08-23, 03:05:04,VALID,1002.05,VALID,0,INVALID,117.805,VALID,0,VALID,24.8892,VALID,76,VALID,0.141016,
2010-08-23, 03:06:04,VALID,1002.01,VALID,0,INVALID,118.171,VALID,0,VALID,24.9106,VALID,76,VALID,0,
2010-08-23, 03:07:04,VALID,1001.98,VALID,0,INVALID,118.477,VALID,0,VALID,24.93,VALID,76,VALID,0.139844,
2010-08-23, 03:08:04,VALID,1001.97,VALID,0,INVALID,118.744,VALID,0,VALID,24.8892,VALID,85,VALID,0.488672,
2010-08-23, 03:09:04,VALID,1001.99,VALID,0,INVALID,118.98,VALID,0,VALID,24.9087,VALID,87,VALID,0.799609,
2010-08-23, 03:10:04,VALID,1001.98,VALID,0,INVALID,119.194,VALID,0,VALID,24.9866,VALID,99,VALID,0.639844,
2010-08-23, 03:11:04,VALID,1002.01,VALID,0,INVALID,119.407,VALID,0,VALID,25.0274,VALID,99,VALID,0.480469,
2010-08-23, 03:12:04,VALID,1001.99,VALID,0,INVALID,119.529,VALID,0,VALID,25.0041,VALID,99,VALID,0.0304688,
2010-08-23, 03:13:04,VALID,1002.09,VALID,0,INVALID,119.659,VALID,0,VALID,25.0255,VALID,50,VALID,0.501562,
2010-08-23, 03:14:04,VALID,1002.09,VALID,0,INVALID,119.758,VALID,0,VALID,25.0255,VALID,356,VALID,0.859375,
2010-08-23, 03:15:04,VALID,1002.1,VALID,0,INVALID,119.789,VALID,0,VALID,25.006,VALID,347,VALID,0.804688,
2010-08-23, 03:16:04,VALID,1002.17,VALID,0,INVALID,119.812,VALID,0,VALID,24.9671,VALID,358,VALID,0.879687,
2010-08-23, 03:17:04,VALID,1002.24,VALID,0,INVALID,119.804,VALID,0,VALID,24.969,VALID,4,VALID,0.960938,
2010-08-23, 03:18:04,VALID,1002.33,VALID,0,INVALID,119.773,VALID,0,VALID,24.9087,VALID,23,VALID,0.905859,
2010-08-23, 03:19:04,VALID,1002.26,VALID,0,INVALID,119.758,VALID,0,VALID,24.8503,VALID,347,VALID,1.34453,
2010-08-23, 03:20:04,VALID,1002.3,VALID,0,INVALID,119.827,VALID,0,VALID,24.7919,VALID,24,VALID,1.41758,
2010-08-23, 03:21:04,VALID,1002.35,VALID,0,INVALID,119.85,VALID,0,VALID,24.8132,VALID,21,VALID,1.2043,
2010-08-23, 03:22:04,VALID,1002.31,VALID,0,INVALID,119.85,VALID,0,VALID,24.8716,VALID,332,VALID,0.462891,
2010-08-23, 03:23:04,VALID,1002.32,VALID,0,INVALID,119.796,VALID,0.100563,VALID,24.8503,VALID,38,VALID,0.155078,
2010-08-23, 03:24:04,VALID,1002.37,VALID,0,INVALID,119.667,VALID,0,VALID,24.8911,VALID,97,VALID,1.06289,
2010-08-23, 03:25:04,VALID,1002.27,VALID,0,INVALID,119.484,VALID,0,VALID,24.9282,VALID,41,VALID,0.454688,
2010-08-23, 03:26:04,VALID,1002.27,VALID,0,INVALID,119.384,VALID,0,VALID,24.9476,VALID,93,VALID,0.370313,
2010-08-23, 03:27:04,VALID,1002.31,VALID,0,INVALID,119.4,VALID,0,VALID,24.9671,VALID,55,VALID,0.621875,
2010-08-23, 03:28:04,VALID,1002.35,VALID,0,INVALID,119.384,VALID,0,VALID,24.9671,VALID,73,VALID,0.690625,
2010-08-23, 03:29:04,VALID,1002.35,VALID,0,INVALID,119.308,VALID,0,VALID,24.9476,VALID,79,VALID,1.76523,
2010-08-23, 03:30:04,VALID,1002.28,VALID,0,INVALID,119.278,VALID,0,VALID,24.969,VALID,72,VALID,1.34687,
2010-08-23, 03:31:04,VALID,1002.23,VALID,0,INVALID,119.209,VALID,0,VALID,24.969,VALID,41,VALID,0.587109,
2010-08-23, 03:32:04,VALID,1002.23,VALID,0,INVALID,119.247,VALID,0,VALID,24.9495,VALID,35,VALID,0.695313,
2010-08-23, 03:33:04,VALID,1002.24,VALID,0,INVALID,119.278,VALID,0,VALID,24.9495,VALID,32,VALID,0.639453,
2010-08-23, 03:34:04,VALID,1002.28,VALID,0,INVALID,119.346,VALID,0,VALID,24.9087,VALID,38,VALID,0.695703,
2010-08-23, 03:35:04,VALID,1002.26,VALID,0,INVALID,119.369,VALID,0,VALID,24.9087,VALID,28,VALID,1.31094,
2010-08-23, 03:36:04,VALID,1002.24,VALID,0,INVALID,119.247,VALID,0,VALID,24.9282,VALID,57,VALID,0.822266,
2010-08-23, 03:37:04,VALID,1002.23,VALID,0,INVALID,119.056,VALID,0,VALID,24.969,VALID,58,VALID,1.28125,
2010-08-23, 03:38:04,VALID,1002.31,VALID,0,INVALID,119.018,VALID,0,VALID,24.9476,VALID,86,VALID,1.09023,
2010-08-23, 03:39:04,VALID,1002.3,VALID,0,INVALID,118.919,VALID,0,VALID,24.9495,VALID,53,VALID,0.623438,
2010-08-23, 03:40:04,VALID,1002.29,VALID,0,INVALID,118.927,VALID,0,VALID,24.9282,VALID,21,VALID,1.42656,
2010-08-23, 03:41:04,VALID,1002.3,VALID,0,INVALID,118.858,VALID,0,VALID,24.9495,VALID,45,VALID,1.31875,
2010-08-23, 03:42:04,VALID,1002.3,VALID,0,INVALID,118.934,VALID,0,VALID,24.9087,VALID,55,VALID,0.846484,